Weather History for Kendall, FL

Change the Weather History Date:

Saturday, October 6, 2012

  Actual Average Record
Temperature  
Mean Temperature 81 °F -  
Max Temperature 88 °F 88 °F 91 °F (2013)
Min Temperature 75 °F 70 °F 60 °F (1992)
Cooling Degree Days 16    
Growing Degree Days 31 (Base 50)    
Moisture  
Dew Point 74 °F    
Average Humidity 80    
Maximum Humidity 96    
Minimum Humidity 65    
Precipitation  
Precipitation 0.02 in - - ()
Sea Level Pressure  
Sea Level Pressure 29.92 in    
Wind  
Wind Speed 4 mph (East)    
Max Wind Speed 12 mph    
Max Gust Speed -    
Visibility 10 miles    
Events Rain    
Averages and records for this station are not official NWS values.
T = Trace of Precipitation, MM = Missing Value Source: NWS Daily Summary

Daily Weather History Graph

Daily Weather History Graph

Search for Another Location

Airport:

Trip Planner

Search our weather history database for the weather conditions in past years. The results will help you decide how hot, cold, wet, or windy it might be!

Date:

Astronomy

Oct. 06, 2012 Rise Set
Actual Time 7:16 AM EDT 7:02 PM EDT
Civil Twilight 6:53 AM EDT 7:25 PM EDT
Nautical Twilight 6:26 AM EDT 7:52 PM EDT
Astronomical Twilight 6:00 AM EDT 8:18 PM EDT
Moon 11:42 PM EDT (10/6) 12:43 PM EDT (10/6)
Length of Visible Light 12h 32m
Length of Day
11h 46m
Waning Gibbous, 65% of the Moon is Illuminated
Oct 6
Waning Gibbous
Oct 8
Last Quarter
Oct 15
New
Oct 21
First Quarter
Oct 29
Full

Hourly Weather History & Observations

Time (EDT) Temp. Heat Index Dew Point Humidity Pressure Visibility Wind Dir Wind Speed Gust Speed Precip Events Conditions
12:53 AM 78.1 °F - 73.9 °F 87% 29.97 in 10.0 mi East 3.5 mph - N/A   Clear
1:53 AM 77.0 °F - 73.9 °F 90% 29.96 in 10.0 mi Calm Calm - N/A   Clear
2:53 AM 78.1 °F - 75.0 °F 90% 29.94 in 10.0 mi NE 4.6 mph - N/A   Clear
3:53 AM 78.1 °F - 75.0 °F 90% 29.92 in 10.0 mi Calm Calm - N/A   Partly Cloudy
4:53 AM 77.0 °F - 73.9 °F 90% 29.91 in 10.0 mi Calm Calm - N/A   Clear
5:53 AM 75.0 °F - 73.0 °F 94% 29.92 in 10.0 mi Calm Calm - N/A   Clear
6:53 AM 75.0 °F - 73.9 °F 96% 29.94 in 10.0 mi Calm Calm - N/A   Clear
7:53 AM 77.0 °F - 75.0 °F 94% 29.94 in 10.0 mi Calm Calm - N/A   Clear
8:53 AM 82.9 °F 90.8 °F 75.9 °F 79% 29.94 in 10.0 mi Calm Calm - N/A   Clear
9:53 AM 86.0 °F 95.1 °F 75.0 °F 70% 29.94 in 10.0 mi Variable 4.6 mph - N/A   Scattered Clouds
10:53 AM 84.9 °F 93.3 °F 75.0 °F 72% 29.94 in 10.0 mi East 3.5 mph - N/A   Overcast
11:07 AM 86.0 °F 95.1 °F 75.2 °F 70% 29.94 in 10.0 mi Variable 4.6 mph - N/A   Overcast
11:53 AM 87.1 °F 97.3 °F 75.9 °F 69% 29.94 in 10.0 mi East 8.1 mph - N/A   Scattered Clouds
12:53 PM 87.1 °F 96.3 °F 75.0 °F 67% 29.93 in 10.0 mi East 11.5 mph - N/A   Overcast
1:53 PM 84.0 °F 91.2 °F 73.9 °F 72% 29.91 in 10.0 mi SE 8.1 mph - 0.01 in   Overcast
2:53 PM 82.9 °F 88.8 °F 73.0 °F 72% 29.89 in 10.0 mi East 8.1 mph - N/A   Partly Cloudy
3:53 PM 84.9 °F 90.7 °F 72.0 °F 65% 29.87 in 10.0 mi East 8.1 mph - N/A   Scattered Clouds
4:53 PM 84.0 °F 90.2 °F 73.0 °F 69% 29.87 in 10.0 mi SE 8.1 mph - N/A   Clear
5:53 PM 82.9 °F 88.8 °F 73.0 °F 72% 29.88 in 10.0 mi East 10.4 mph - N/A   Clear
6:53 PM 82.4 °F 88.2 °F 73.4 °F 74% 29.88 in 10.0 mi ESE 6.9 mph - N/A   Scattered Clouds
7:53 PM 80.1 °F 84.5 °F 73.9 °F 81% 29.90 in 10.0 mi East 6.9 mph - N/A   Clear
8:53 PM 79.0 °F - 73.9 °F 84% 29.93 in 10.0 mi East 6.9 mph - N/A   Clear
9:53 PM 81.0 °F 85.8 °F 73.0 °F 77% 29.94 in 10.0 mi NE 3.5 mph - N/A   Clear
10:53 PM 79.0 °F - 75.9 °F 90% 29.94 in 10.0 mi North 3.5 mph - 0.01 in Rain Light Rain
11:53 PM 78.8 °F - 75.2 °F 89% 29.94 in 10.0 mi NNE 5.8 mph - N/A Rain Light Rain